カタログに戻る

DELTA 1 DEB

運用中SSO
NORAD 21282·DEBRIS·🇺🇸 United States

打ち上げ Jun 12, 1975 から Vandenberg Space Force Base

Loading…

次のパス (今後24時間)

TLE

最新Source: Space-Track

元期: Sep 14, 2026, 14:09 UTC

1 21282U 75052T   26257.58979128  .00000057  00000-0  21923-3 0  9997
2 21282  99.8236 186.4019 0100878  74.5474 100.0629 13.24866919709708

AllMySatでDELTA 1 DEBをリアルタイム追跡

Download on the App Store